SL-16 DEB, 18417

Orbit data source: Space-Track

SL-16 DEB, 18417 is space debris in LEO originally from a launch on Wed, 18 Mar 1987 UTC launched from the Tyuratam Missile And Space Complex (TTMTR). Debris objects in space refer to the collection of defunct objects orbiting the Earth. Examples of debris include non-operational satellites, rocket bodies, and fragments generated from explosions, collisions, or faulty payload assembly.

Loading next visibility...
SL-16 DEB details
Identifier
18417, 1987-027D
Orbit
LEO
Last TLE update7 hours ago
Origin
Flag of CISUNKS (CIS)
ManufacturerYuzhnoe
MissionSpacecraft
Bus & MotorSEP MOTOR COVER, Unknown motor
Mass~0 kg wet, ~1 kg dry
Launch date (UTC)
1987-03-18 (38 years ago)
Launch vehicleUnknown
Launch site
Tyuratam Missile And Space Complex (TTMTR)
Object type
Payload
Rocket body
Debris
Shape & HBRUnknown
Radar Cross SectionSmall (<0.1 m²)

Expand to show TLE details & history

TLE from 7 hours ago
0 SL-16 DEB
1 18417U 87027D   24361.31373743  .00000507  00000-0  50066-3 0  9994
2 18417  70.9998 319.8017 0203470 321.5070 190.2117 13.74461360893600
Epoch: 2024-12-26T07:31Z
Definitive object data (Epoch: 2024-12-26T07:31:46.913Z)
Latitude27.03504°
Longitude-78.5068°
Altitude1,133.877 km
Speed7.215 km/s
True Right ascension08h 38m 56s
True Declination26° 54' 11"
Sunlit
Object was in full shadow at TLE epoch
Visualization TLE readout
Latitude-54.78971°
Longitude-40.00739°
Altitude979.268 km
Speed7.374 km/s
Apparent Right ascension06h 08m 36s
Apparent Declination-69° 59' 08"
Sunlit
Object is in daylight
Visualization observer readout
Local Sidereal Time14:19:08
Azimuth205.576° SW
Elevation-48.113°
Doppler factor1
Orbital elements
Apogee altitude1,131.309 km
Perigee altitude831.813 km
Semi-major axis7,359.698 km
Eccentricity0.020347
Inclination70.9998°
RAAN319.8017°
Arg. of periapsis321.507°
True anomaly189.80845°
Mean anomaly190.2117°
Eccentric anomaly190.00908°
Mean motion3.43758 °/min
BSTAR0.00050066
Orbital period104.72 mins
Loading maneuver chart data...
Loading historical data...
Loading historical data...
Loading historical data...
Loading historical data...
Loading historical data...
Loading historical data...
Loading historical data...

SL-16 DEB Visibility forecast

Observer location: undefined°, undefined

Span
Click to sort rows by Start time (UTC) header in descending order
Start Az.
Max El. time (UTC)
Max El. Az.
Max El.
End time (UTC)
End Az.
11 mins2024-12-26 22:37:12.601Z190.157° SSW2024-12-26 22:42:12.601Z113.132° SE43.163°2024-12-26 22:48:12.601Z28.13° NE
7 mins2024-12-27 00:27:12.601Z275.779° WNW2024-12-27 00:30:12.601Z311.301° NW19.897°2024-12-27 00:34:12.601Z353.243° N
12 mins2024-12-27 07:48:12.601Z352.836° N2024-12-27 07:53:12.601Z52.283° ENE35.768°2024-12-27 08:00:12.601Z132.128° SE
10 mins2024-12-27 09:36:12.601Z309.761° NW2024-12-27 09:40:12.601Z263.842° W29.371°2024-12-27 09:46:12.601Z198.713° SSW
|